Regional Weather Roundup
Issued by NWS Cleveland, OH

Home | Current Version | Previous Version | Graphics & Text | Print | Product List | Glossary On
Versions: 1 2 3 4 5 6 7 8 9 10 11 12 13 14 15 16 17 18 19 20 21 22 23 24 25 26 27 28 29 30 31 32 33 34 35 36 37 38 39 40 41 42 43 44 45 46 47 48 49 50
000
ASUS41 KCLE 202010
RWRCLE
OHIO REGIONAL WEATHER ROUNDUP
NATIONAL WEATHER SERVICE WILMINGTON, OH
300 PM EST SAT JAN 20 2018

NOTE: "FAIR" INDICATES FEW OR NO CLOUDS BELOW 12,000 FEET WITH NO
SIGNIFICANT WEATHER AND/OR OBSTRUCTIONS TO VISIBILITY.

OHZ001>008-015>018-024>027-034-035-043-044-202100-
   NORTHWEST OHIO

CITY           SKY/WX    TMP DP  RH WIND       PRES   REMARKS
DEFIANCE       FAIR      40  30  67 SW12      29.99R
FINDLAY        FAIR      41  30  65 SW13      29.99R
TOLEDO EXPRESS FAIR      40  31  70 SW18G26   29.97R
TOLEDO EXEC    FAIR      40  31  70 SW17      29.98R
LIMA           FAIR      40  31  70 SW14      30.00S
$$

OHZ009>014-019>023-028>033-038-089-202100-
   NORTHEAST OHIO

CITY           SKY/WX    TMP DP  RH WIND       PRES   REMARKS
CLE-HOPKINS    FAIR      43  28  55 SW16      30.01R
CLE-LAKEFRONT  FAIR      43  28  55 SW15      29.98R
CUY CO. ARPT   MOSUNNY   45  28  53 SW21      29.98R
LORAIN-ELYRIA  FAIR      40  25  55 W15       29.99R
ASHTABULA      FAIR      42  26  53 S12       29.97R
AKRON-CANTON   FAIR      42  26  53 SW15G22   29.99S
WOOSTER        FAIR      41  27  57 SW12      30.00R
MANSFIELD      FAIR      41  28  60 SW15      29.99S
YOUNGSTOWN     PTSUNNY   41  27  57 SW14      29.98R
$$

OHZ042-051>053-060>062-070>072-077>081-202100-
  SOUTHWEST OHIO

CITY           SKY/WX    TMP DP  RH WIND       PRES   REMARKS
CINC-COVINGTON PTSUNNY   47  32  56 S12       30.06F
CINC-LUNKEN    FAIR      49  32  52 S10       30.08F
HAMILTON       CLOUDY    50  33  52 S7        30.06F
DAYTON         PTSUNNY   44  33  65 SW15      30.04F
WRIGHT-PAT AFB FAIR      45  24  43 SW13      30.04S
DAYTON GENERAL FAIR      47  31  53 SW14      30.04S
WILMINGTON     FAIR      44  31  60 SW12      30.05S
$$

OHZ036-037-039>041-045>050-054>059-063>069-073>076-082>088-202100-
  CENTRAL AND SOUTHEAST OHIO

CITY           SKY/WX    TMP DP  RH WIND       PRES   REMARKS
COLUMBUS       PTSUNNY   43  28  55 SW13      30.06R
OSU AIRPORT    FAIR      43  29  57 SW12      30.04R
BOLTON FIELD   SUNNY     43  28  56 SW12      30.06S
RICKENBACK AFB FAIR      41  29  60 SW8       30.06S
NEWARK         FAIR      43  27  53 SW9       30.05R
MARION         FAIR      40  28  62 SW13      30.02S
LANCASTER      FAIR      44  28  53 SW9       30.06S
ZANESVILLE     FAIR      48  27  44 W13       30.04R
NEW PHILLY     FAIR      44  27  51 SW7G18    30.03S
$$




USA.gov is the U.S. government's official web portal to all federal, state and local government web resources and services.